Time,TemperatureF,DewpointF,PressureIn,WindDirection,WindDirectionDegrees,WindSpeedMPH,WindSpeedGustMPH,Humidity,HourlyPrecipIn,Conditions,Clouds,dailyrainin,SoftwareType,DateUTC
2015-07-07 00:00:00,77.0,73.8,30.02,SW,222,1.0,6.0,90,0.00,,,0.00,Wunderground v.1.15,2015-07-07 05:00:00,
2015-07-07 00:10:00,77.1,73.9,30.02,South,172,1.0,1.0,90,0.00,,,0.00,Wunderground v.1.15,2015-07-07 05:10:00,
2015-07-07 00:20:00,77.1,73.6,30.02,ESE,113,1.0,6.0,89,0.00,,,0.00,Wunderground v.1.15,2015-07-07 05:20:00,
2015-07-07 00:30:00,77.1,73.9,30.02,South,188,1.0,6.0,90,0.00,,,0.00,Wunderground v.1.15,2015-07-07 05:30:00,
2015-07-07 00:40:00,77.2,73.7,30.03,SSW,207,1.0,1.0,89,0.00,,,0.00,Wunderground v.1.15,2015-07-07 05:40:00,
2015-07-07 00:50:00,77.1,73.6,30.03,South,182,1.0,1.0,89,0.00,,,0.00,Wunderground v.1.15,2015-07-07 05:50:00,
2015-07-07 01:00:00,77.0,73.5,30.02,SSE,165,1.0,6.0,89,0.00,,,0.00,Wunderground v.1.15,2015-07-07 06:00:00,
2015-07-07 01:10:00,77.0,73.5,30.02,SW,218,1.0,6.0,89,0.00,,,0.00,Wunderground v.1.15,2015-07-07 06:10:00,
2015-07-07 01:20:00,77.2,73.7,30.02,South,191,1.0,1.0,89,0.00,,,0.00,Wunderground v.1.15,2015-07-07 06:20:00,
2015-07-07 01:30:00,77.2,73.7,30.02,SW,235,1.0,6.0,89,0.00,,,0.00,Wunderground v.1.15,2015-07-07 06:30:00,
2015-07-07 01:40:00,77.1,73.6,30.02,SW,219,1.0,6.0,89,0.00,,,0.00,Wunderground v.1.15,2015-07-07 06:40:00,
2015-07-07 01:50:00,77.1,73.6,30.02,SSE,147,1.0,6.0,89,0.00,,,0.00,Wunderground v.1.15,2015-07-07 06:50:00,
2015-07-07 02:00:00,77.0,73.5,30.01,SSW,207,2.0,6.0,89,0.00,,,0.00,Wunderground v.1.15,2015-07-07 07:00:00,
2015-07-07 02:10:00,77.0,73.5,30.01,SE,128,2.0,6.0,89,0.00,,,0.00,Wunderground v.1.15,2015-07-07 07:10:00,
2015-07-07 02:20:00,77.2,73.7,30.01,SSE,153,2.0,2.0,89,0.00,,,0.00,Wunderground v.1.15,2015-07-07 07:20:00,
2015-07-07 02:30:00,77.1,73.6,30.01,South,187,2.0,2.0,89,0.00,,,0.00,Wunderground v.1.15,2015-07-07 07:30:00,
2015-07-07 02:40:00,77.1,73.6,30.00,South,172,2.0,6.0,89,0.00,,,0.00,Wunderground v.1.15,2015-07-07 07:40:00,
2015-07-07 02:50:00,77.0,73.5,30.00,SSW,210,2.0,2.0,89,0.00,,,0.00,Wunderground v.1.15,2015-07-07 07:50:00,
2015-07-07 03:00:00,77.0,73.5,29.99,SSW,205,2.0,2.0,89,0.00,,,0.00,Wunderground v.1.15,2015-07-07 08:00:00,
2015-07-07 03:10:00,77.1,73.6,29.99,East,92,2.0,6.0,89,0.00,,,0.00,Wunderground v.1.15,2015-07-07 08:10:00,
2015-07-07 03:20:00,77.0,73.5,29.99,South,186,2.0,2.0,89,0.00,,,0.00,Wunderground v.1.15,2015-07-07 08:20:00,
2015-07-07 03:30:00,77.0,73.5,30.00,SSE,167,1.0,6.0,89,0.00,,,0.00,Wunderground v.1.15,2015-07-07 08:30:00,
2015-07-07 03:40:00,77.0,73.5,30.00,SSW,205,2.0,6.0,89,0.00,,,0.00,Wunderground v.1.15,2015-07-07 08:40:00,
2015-07-07 03:50:00,77.0,73.5,30.00,SE,124,2.0,2.0,89,0.00,,,0.00,Wunderground v.1.15,2015-07-07 08:50:00,
2015-07-07 04:00:00,77.0,73.5,30.00,South,188,1.0,6.0,89,0.00,,,0.00,Wunderground v.1.15,2015-07-07 09:00:00,
2015-07-07 04:10:00,76.8,73.3,30.00,SE,129,1.0,1.0,89,0.00,,,0.00,Wunderground v.1.15,2015-07-07 09:10:00,
2015-07-07 04:20:00,76.6,73.4,30.00,WSW,239,1.0,6.0,90,0.00,,,0.00,Wunderground v.1.15,2015-07-07 09:20:00,
2015-07-07 04:30:00,76.5,73.3,30.00,SSE,161,1.0,6.0,90,0.00,,,0.00,Wunderground v.1.15,2015-07-07 09:30:00,
2015-07-07 04:40:00,76.6,73.4,30.00,SW,215,1.0,6.0,90,0.00,,,0.00,Wunderground v.1.15,2015-07-07 09:40:00,
2015-07-07 04:50:00,76.6,73.4,30.00,SW,225,1.0,6.0,90,0.00,,,0.00,Wunderground v.1.15,2015-07-07 09:50:00,
2015-07-07 05:10:00,77.0,73.5,30.00,SSW,203,2.0,6.0,89,0.00,,,0.00,Wunderground v.1.15,2015-07-07 10:10:00,
2015-07-07 05:20:00,77.1,73.6,30.00,SSE,156,2.0,6.0,89,0.00,,,0.00,Wunderground v.1.15,2015-07-07 10:20:00,
2015-07-07 05:30:00,77.1,73.6,30.00,SSW,207,2.0,6.0,89,0.00,,,0.00,Wunderground v.1.15,2015-07-07 10:30:00,
2015-07-07 05:40:00,77.2,73.7,30.00,SW,219,3.0,6.0,89,0.00,,,0.00,Wunderground v.1.15,2015-07-07 10:40:00,
2015-07-07 05:50:00,77.5,73.7,30.00,SSE,166,3.0,3.0,88,0.00,,,0.00,Wunderground v.1.15,2015-07-07 10:50:00,
2015-07-07 06:00:00,77.4,73.6,30.00,SW,222,2.0,2.0,88,0.00,,,0.00,Wunderground v.1.15,2015-07-07 11:00:00,
2015-07-07 06:20:00,77.6,73.8,30.01,SSW,197,2.0,6.0,88,0.00,,,0.00,Wunderground v.1.15,2015-07-07 11:20:00,
2015-07-07 06:30:00,77.5,73.7,30.01,SSW,208,3.0,3.0,88,0.00,,,0.00,Wunderground v.1.15,2015-07-07 11:30:00,
2015-07-07 06:40:00,77.7,73.9,30.02,SE,130,2.0,2.0,88,0.00,,,0.00,Wunderground v.1.15,2015-07-07 11:40:00,
2015-07-07 06:50:00,77.8,74.0,30.02,South,174,3.0,6.0,88,0.00,,,0.00,Wunderground v.1.15,2015-07-07 11:50:00,
2015-07-07 07:00:00,77.9,74.1,30.02,SSW,212,2.0,2.0,88,0.00,,,0.00,Wunderground v.1.15,2015-07-07 12:00:00,
2015-07-07 07:10:00,78.2,74.4,30.02,South,177,2.0,2.0,88,0.00,,,0.00,Wunderground v.1.15,2015-07-07 12:10:00,
2015-07-07 07:20:00,78.5,74.6,30.03,SSW,201,2.0,2.0,88,0.00,,,0.00,Wunderground v.1.15,2015-07-07 12:20:00,
2015-07-07 07:30:00,78.9,74.7,30.03,SSW,209,2.0,6.0,87,0.00,,,0.00,Wunderground v.1.15,2015-07-07 12:30:00,
2015-07-07 07:40:00,79.0,74.8,30.03,West,273,3.0,3.0,87,0.00,,,0.00,Wunderground v.1.15,2015-07-07 12:40:00,
2015-07-07 07:50:00,79.6,75.0,30.03,SSW,208,3.0,6.0,86,0.00,,,0.00,Wunderground v.1.15,2015-07-07 12:50:00,
2015-07-07 08:00:00,79.6,75.0,30.04,SSE,157,4.0,6.0,86,0.00,,,0.00,Wunderground v.1.15,2015-07-07 13:00:00,
2015-07-07 08:10:00,80.0,75.1,30.03,SE,135,4.0,4.0,85,0.00,,,0.00,Wunderground v.1.15,2015-07-07 13:10:00,
2015-07-07 08:20:00,80.6,75.7,30.04,ENE,77,4.0,4.0,85,0.00,,,0.00,Wunderground v.1.15,2015-07-07 13:20:00,
2015-07-07 08:30:00,80.9,75.6,30.04,SSE,163,4.0,4.0,84,0.00,,,0.00,Wunderground v.1.15,2015-07-07 13:30:00,
2015-07-07 08:40:00,81.3,75.6,30.04,SSW,210,4.0,7.0,83,0.00,,,0.00,Wunderground v.1.15,2015-07-07 13:40:00,
2015-07-07 08:50:00,81.1,75.4,30.04,South,169,5.0,5.0,83,0.00,,,0.00,Wunderground v.1.15,2015-07-07 13:50:00,
2015-07-07 09:00:00,81.3,75.6,30.04,SSW,213,5.0,5.0,83,0.00,,,0.00,Wunderground v.1.15,2015-07-07 14:00:00,
2015-07-07 09:10:00,82.3,76.3,30.04,South,177,4.0,6.0,82,0.00,,,0.00,Wunderground v.1.15,2015-07-07 14:10:00,
2015-07-07 09:20:00,82.8,76.0,30.04,South,184,4.0,4.0,80,0.00,,,0.00,Wunderground v.1.15,2015-07-07 14:20:00,
2015-07-07 09:30:00,82.7,76.3,30.04,SW,219,4.0,6.0,81,0.00,,,0.00,Wunderground v.1.15,2015-07-07 14:30:00,
2015-07-07 09:40:00,83.6,76.4,30.04,SSE,167,3.0,6.0,79,0.00,,,0.00,Wunderground v.1.15,2015-07-07 14:40:00,
2015-07-07 09:50:00,84.0,76.4,30.03,SW,233,4.0,4.0,78,0.00,,,0.00,Wunderground v.1.15,2015-07-07 14:50:00,
2015-07-07 10:00:00,84.7,76.7,30.04,South,177,3.0,6.0,77,0.00,,,0.00,Wunderground v.1.15,2015-07-07 15:00:00,
2015-07-07 10:10:00,85.1,76.3,30.03,SSW,204,4.0,8.0,75,0.00,,,0.00,Wunderground v.1.15,2015-07-07 15:10:00,
2015-07-07 10:20:00,85.1,76.7,30.03,WSW,243,4.0,4.0,76,0.00,,,0.00,Wunderground v.1.15,2015-07-07 15:20:00,
2015-07-07 10:30:00,85.6,76.4,30.03,SSW,207,5.0,9.0,74,0.00,,,0.00,Wunderground v.1.15,2015-07-07 15:30:00,
2015-07-07 10:40:00,85.7,76.5,30.03,SSW,203,5.0,5.0,74,0.00,,,0.00,Wunderground v.1.15,2015-07-07 15:40:00,
2015-07-07 10:50:00,86.2,76.1,30.03,SW,217,4.0,7.0,72,0.00,,,0.00,Wunderground v.1.15,2015-07-07 15:50:00,
2015-07-07 11:00:00,86.0,76.3,30.03,SW,226,5.0,5.0,73,0.00,,,0.00,Wunderground v.1.15,2015-07-07 16:00:00,
2015-07-07 11:10:00,86.2,76.1,30.03,South,173,4.0,4.0,72,0.00,,,0.00,Wunderground v.1.15,2015-07-07 16:10:00,
2015-07-07 11:20:00,86.0,76.3,30.03,SSW,195,5.0,5.0,73,0.00,,,0.00,Wunderground v.1.15,2015-07-07 16:20:00,
2015-07-07 11:30:00,86.8,76.7,30.03,South,179,4.0,6.0,72,0.00,,,0.00,Wunderground v.1.15,2015-07-07 16:30:00,
2015-07-07 11:40:00,87.0,76.5,30.03,WSW,255,4.0,7.0,71,0.00,,,0.00,Wunderground v.1.15,2015-07-07 16:40:00,
2015-07-07 11:50:00,87.5,76.9,30.03,SSW,195,4.0,4.0,71,0.00,,,0.00,Wunderground v.1.15,2015-07-07 16:50:00,
2015-07-07 12:00:00,88.4,76.9,30.03,SSW,194,4.0,6.0,69,0.00,,,0.00,Wunderground v.1.15,2015-07-07 17:00:00,
2015-07-07 12:20:00,88.3,76.4,30.03,SSE,167,5.0,6.0,68,0.00,,,0.00,Wunderground v.1.15,2015-07-07 17:20:00,
2015-07-07 12:30:00,88.4,76.5,30.03,ESE,121,6.0,6.0,68,0.00,,,0.00,Wunderground v.1.15,2015-07-07 17:30:00,
2015-07-07 12:40:00,89.0,76.2,30.02,South,191,5.0,8.0,66,0.00,,,0.00,Wunderground v.1.15,2015-07-07 17:40:00,
2015-07-07 12:50:00,89.7,76.8,30.02,SW,226,5.0,5.0,66,0.00,,,0.00,Wunderground v.1.15,2015-07-07 17:50:00,
2015-07-07 13:00:00,90.0,77.1,30.02,East,98,4.0,6.0,66,0.00,,,0.00,Wunderground v.1.15,2015-07-07 18:00:00,
2015-07-07 13:10:00,90.4,77.0,30.01,West,264,3.0,3.0,65,0.00,,,0.00,Wunderground v.1.15,2015-07-07 18:10:00,
2015-07-07 13:20:00,90.3,76.0,30.01,WSW,239,5.0,6.0,63,0.00,,,0.00,Wunderground v.1.15,2015-07-07 18:20:00,
2015-07-07 13:30:00,89.8,76.0,30.01,SW,219,5.0,6.0,64,0.00,,,0.00,Wunderground v.1.15,2015-07-07 18:30:00,
2015-07-07 13:40:00,90.5,76.7,30.01,SSE,166,5.0,5.0,64,0.00,,,0.00,Wunderground v.1.15,2015-07-07 18:40:00,
2015-07-07 13:50:00,91.0,76.7,30.00,SSW,194,4.0,4.0,63,0.00,,,0.00,Wunderground v.1.15,2015-07-07 18:50:00,
2015-07-07 14:00:00,91.5,76.1,30.00,SW,235,4.0,4.0,61,0.00,,,0.00,Wunderground v.1.15,2015-07-07 19:00:00,
2015-07-07 14:10:00,91.6,76.2,30.00,South,173,6.0,6.0,61,0.00,,,0.00,Wunderground v.1.15,2015-07-07 19:10:00,
2015-07-07 14:20:00,92.4,76.5,30.00,SSW,196,4.0,9.0,60,0.00,,,0.00,Wunderground v.1.15,2015-07-07 19:20:00,
2015-07-07 14:30:00,92.9,78.4,30.00,SSE,156,3.0,6.0,63,0.00,,,0.00,Wunderground v.1.15,2015-07-07 19:30:00,
2015-07-07 14:40:00,91.5,75.7,30.00,SSW,194,4.0,4.0,60,0.00,,,0.00,Wunderground v.1.15,2015-07-07 19:40:00,
2015-07-07 14:50:00,92.0,77.6,30.00,SSW,195,4.0,6.0,63,0.00,,,0.00,Wunderground v.1.15,2015-07-07 19:50:00,
2015-07-07 15:00:00,91.5,77.1,30.00,SSE,155,4.0,6.0,63,0.00,,,0.00,Wunderground v.1.15,2015-07-07 20:00:00,
2015-07-07 15:10:00,90.8,76.9,30.00,SSW,205,4.0,4.0,64,0.00,,,0.00,Wunderground v.1.15,2015-07-07 20:10:00,
2015-07-07 15:20:00,90.1,77.2,30.00,South,169,3.0,7.0,66,0.00,,,0.00,Wunderground v.1.15,2015-07-07 20:20:00,
2015-07-07 15:30:00,91.0,78.1,30.00,SE,133,4.0,6.0,66,0.00,,,0.00,Wunderground v.1.15,2015-07-07 20:30:00,
2015-07-07 15:40:00,91.5,77.1,29.99,SSW,203,4.0,4.0,63,0.00,,,0.00,Wunderground v.1.15,2015-07-07 20:40:00,
2015-07-07 15:50:00,91.4,77.5,30.00,SSW,208,4.0,6.0,64,0.00,,,0.00,Wunderground v.1.15,2015-07-07 20:50:00,
2015-07-07 16:00:00,91.4,77.0,29.99,SE,125,5.0,7.0,63,0.00,,,0.00,Wunderground v.1.15,2015-07-07 21:00:00,